Time,TemperatureF,DewpointF,PressureIn,WindDirection,WindDirectionDegrees,WindSpeedMPH,WindSpeedGustMPH,Humidity,HourlyPrecipIn,Conditions,Clouds,dailyrainin,SolarRadiationWatts/m^2,SoftwareType,DateUTC
2013-10-14 00:02:00,41.5,29.0,30.57,NNE,20,10.0,11.0,62,0.00,,,0.00,0,weatherlink.com 1.10,2013-10-14 06:02:00,
2013-10-14 00:17:00,42.1,29.0,30.57,NNE,13,9.0,11.0,60,0.00,,,0.00,0,weatherlink.com 1.10,2013-10-14 06:17:00,
2013-10-14 00:32:00,41.8,29.0,30.57,North,5,9.0,11.0,62,0.00,,,0.00,0,weatherlink.com 1.10,2013-10-14 06:32:00,
2013-10-14 00:47:00,41.6,30.0,30.57,NNE,21,10.0,12.0,63,0.00,,,0.00,0,weatherlink.com 1.10,2013-10-14 06:47:00,
2013-10-14 01:02:00,41.2,30.0,30.58,NNE,22,10.0,12.0,64,0.00,,,0.00,0,weatherlink.com 1.10,2013-10-14 07:02:00,
2013-10-14 01:17:00,40.9,30.0,30.58,North,11,11.0,12.0,65,0.00,,,0.00,0,weatherlink.com 1.10,2013-10-14 07:17:00,
2013-10-14 01:32:00,40.7,30.0,30.58,NNE,14,11.0,13.0,66,0.00,,,0.00,0,weatherlink.com 1.10,2013-10-14 07:32:00,
2013-10-14 01:47:00,40.6,30.0,30.58,North,9,10.0,13.0,66,0.00,,,0.00,0,weatherlink.com 1.10,2013-10-14 07:47:00,
2013-10-14 02:02:00,40.5,30.0,30.59,North,5,10.0,13.0,66,0.00,,,0.00,0,weatherlink.com 1.10,2013-10-14 08:02:00,
2013-10-14 02:17:00,40.2,30.0,30.59,North,5,11.0,12.0,67,0.00,,,0.00,0,weatherlink.com 1.10,2013-10-14 08:17:00,
2013-10-14 02:32:00,39.9,30.0,30.59,North,5,9.0,12.0,68,0.00,,,0.00,0,weatherlink.com 1.10,2013-10-14 08:32:00,
2013-10-14 02:47:00,39.4,30.0,30.59,North,5,8.0,10.0,69,0.00,,,0.00,0,weatherlink.com 1.10,2013-10-14 08:47:00,
2013-10-14 03:02:00,39.0,30.0,30.59,North,9,9.0,9.0,71,0.00,,,0.00,0,weatherlink.com 1.10,2013-10-14 09:02:00,
2013-10-14 03:17:00,39.4,30.0,30.59,North,5,10.0,12.0,70,0.00,,,0.00,0,weatherlink.com 1.10,2013-10-14 09:17:00,
2013-10-14 03:32:00,39.6,30.0,30.59,North,5,12.0,14.0,69,0.00,,,0.00,0,weatherlink.com 1.10,2013-10-14 09:32:00,
2013-10-14 03:47:00,39.7,30.0,30.59,North,5,14.0,15.0,69,0.00,,,0.00,0,weatherlink.com 1.10,2013-10-14 09:47:00,
2013-10-14 04:03:00,39.9,30.0,30.59,North,5,14.0,15.0,69,0.00,,,0.00,0,weatherlink.com 1.10,2013-10-14 10:03:00,
2013-10-14 04:18:00,39.8,30.0,30.59,North,5,12.0,16.0,69,0.00,,,0.00,0,weatherlink.com 1.10,2013-10-14 10:18:00,
2013-10-14 04:33:00,39.7,30.0,30.59,North,360,14.0,15.0,69,0.00,,,0.00,0,weatherlink.com 1.10,2013-10-14 10:33:00,
2013-10-14 04:48:00,39.1,30.0,30.60,North,360,14.0,14.0,71,0.00,,,0.00,0,weatherlink.com 1.10,2013-10-14 10:48:00,
2013-10-14 05:03:00,39.6,30.0,30.60,NNE,12,9.0,13.0,69,0.00,,,0.00,0,weatherlink.com 1.10,2013-10-14 11:03:00,
2013-10-14 05:18:00,39.5,30.0,30.60,North,5,10.0,12.0,70,0.00,,,0.00,0,weatherlink.com 1.10,2013-10-14 11:18:00,
2013-10-14 05:33:00,39.2,30.0,30.60,North,5,10.0,11.0,70,0.00,,,0.00,0,weatherlink.com 1.10,2013-10-14 11:33:00,
2013-10-14 05:48:00,38.4,31.0,30.60,North,5,10.0,12.0,74,0.00,,,0.00,0,weatherlink.com 1.10,2013-10-14 11:48:00,
2013-10-14 06:03:00,38.5,31.0,30.60,North,5,11.0,12.0,74,0.00,,,0.00,0,weatherlink.com 1.10,2013-10-14 12:03:00,
2013-10-14 06:18:00,39.4,31.0,30.61,North,360,12.0,13.0,71,0.00,,,0.00,0,weatherlink.com 1.10,2013-10-14 12:18:00,
2013-10-14 06:33:00,38.1,31.0,30.61,North,5,10.0,12.0,75,0.00,,,0.00,0,weatherlink.com 1.10,2013-10-14 12:33:00,
2013-10-14 06:48:00,37.5,31.0,30.61,North,360,13.0,14.0,78,0.00,,,0.00,0,weatherlink.com 1.10,2013-10-14 12:48:00,
2013-10-14 07:03:00,37.5,31.0,30.61,North,360,15.0,16.0,78,0.00,,,0.00,0,weatherlink.com 1.10,2013-10-14 13:03:00,
2013-10-14 07:18:00,37.4,31.0,30.62,North,355,12.0,16.0,79,0.00,,,0.00,0,weatherlink.com 1.10,2013-10-14 13:18:00,
2013-10-14 07:33:00,37.1,31.0,30.62,North,355,14.0,15.0,80,0.00,,,0.00,0,weatherlink.com 1.10,2013-10-14 13:33:00,
2013-10-14 07:48:00,37.0,32.0,30.63,North,355,13.0,14.0,81,0.00,,,0.00,0,weatherlink.com 1.10,2013-10-14 13:48:00,
2013-10-14 08:03:00,37.1,32.0,30.63,North,355,13.0,15.0,81,0.00,,,0.00,7,weatherlink.com 1.10,2013-10-14 14:03:00,
2013-10-14 08:18:00,37.7,31.0,30.64,North,360,13.0,15.0,78,0.00,,,0.00,21,weatherlink.com 1.10,2013-10-14 14:18:00,
2013-10-14 08:33:00,38.3,32.0,30.65,North,5,16.0,16.0,77,0.00,,,0.00,40,weatherlink.com 1.10,2013-10-14 14:33:00,
2013-10-14 08:48:00,38.4,31.0,30.65,North,5,14.0,16.0,76,0.00,,,0.00,62,weatherlink.com 1.10,2013-10-14 14:48:00,
2013-10-14 09:03:00,38.6,31.0,30.66,North,360,14.0,16.0,75,0.00,,,0.00,111,weatherlink.com 1.10,2013-10-14 15:03:00,
2013-10-14 09:18:00,38.6,32.0,30.66,North,355,12.0,14.0,77,0.00,,,0.00,172,weatherlink.com 1.10,2013-10-14 15:18:00,
2013-10-14 09:33:00,39.2,32.0,30.66,North,360,13.0,13.0,76,0.00,,,0.00,204,weatherlink.com 1.10,2013-10-14 15:33:00,
2013-10-14 09:48:00,39.9,33.0,30.66,North,10,9.0,13.0,75,0.00,,,0.00,255,weatherlink.com 1.10,2013-10-14 15:48:00,
2013-10-14 10:03:00,40.2,33.0,30.66,NNE,21,9.0,12.0,74,0.00,,,0.00,297,weatherlink.com 1.10,2013-10-14 16:03:00,
2013-10-14 10:18:00,41.1,33.0,30.66,North,10,10.0,11.0,73,0.00,,,0.00,334,weatherlink.com 1.10,2013-10-14 16:18:00,
2013-10-14 10:33:00,42.7,32.0,30.66,North,355,13.0,13.0,67,0.00,,,0.00,369,weatherlink.com 1.10,2013-10-14 16:33:00,
2013-10-14 10:49:00,43.6,32.0,30.66,North,360,13.0,15.0,64,0.00,,,0.00,406,weatherlink.com 1.10,2013-10-14 16:49:00,
2013-10-14 11:04:00,43.5,32.0,30.66,NNW,347,15.0,15.0,64,0.00,,,0.00,63,weatherlink.com 1.10,2013-10-14 17:04:00,
2013-10-14 11:19:00,43.6,31.0,30.66,North,350,14.0,15.0,62,0.00,,,0.00,118,weatherlink.com 1.10,2013-10-14 17:19:00,
2013-10-14 11:34:00,44.0,32.0,30.66,North,355,9.0,12.0,63,0.00,,,0.00,139,weatherlink.com 1.10,2013-10-14 17:34:00,
2013-10-14 11:49:00,44.4,32.0,30.66,North,350,9.0,11.0,63,0.00,,,0.00,139,weatherlink.com 1.10,2013-10-14 17:49:00,
2013-10-14 12:04:00,44.9,32.0,30.66,NNW,347,9.0,11.0,61,0.00,,,0.00,155,weatherlink.com 1.10,2013-10-14 18:04:00,
2013-10-14 12:19:00,45.6,31.0,30.66,NNW,344,9.0,12.0,58,0.00,,,0.00,142,weatherlink.com 1.10,2013-10-14 18:19:00,
2013-10-14 12:34:00,45.9,31.0,30.66,NNW,342,9.0,11.0,57,0.00,,,0.00,132,weatherlink.com 1.10,2013-10-14 18:34:00,
2013-10-14 12:49:00,46.1,31.0,30.66,NNW,348,10.0,13.0,57,0.00,,,0.00,134,weatherlink.com 1.10,2013-10-14 18:49:00,
2013-10-14 13:04:00,46.3,31.0,30.66,NNW,340,11.0,12.0,56,0.00,,,0.00,123,weatherlink.com 1.10,2013-10-14 19:04:00,
2013-10-14 13:19:00,46.4,31.0,30.66,NNW,336,9.0,11.0,55,0.00,,,0.00,137,weatherlink.com 1.10,2013-10-14 19:19:00,
2013-10-14 13:34:00,46.5,31.0,30.66,NNW,347,10.0,11.0,56,0.00,,,0.00,156,weatherlink.com 1.10,2013-10-14 19:34:00,
2013-10-14 13:49:00,46.9,32.0,30.65,NNW,335,8.0,10.0,56,0.00,,,0.00,188,weatherlink.com 1.10,2013-10-14 19:49:00,
2013-10-14 14:04:00,47.3,32.0,30.65,NNW,336,12.0,13.0,56,0.00,,,0.00,279,weatherlink.com 1.10,2013-10-14 20:04:00,
2013-10-14 14:19:00,47.9,31.0,30.65,NW,317,8.0,13.0,53,0.00,,,0.00,385,weatherlink.com 1.10,2013-10-14 20:19:00,
2013-10-14 14:34:00,48.4,31.0,30.65,NNW,334,8.0,12.0,52,0.00,,,0.00,603,weatherlink.com 1.10,2013-10-14 20:34:00,
2013-10-14 14:49:00,49.1,30.0,30.65,North,350,10.0,14.0,49,0.00,,,0.00,568,weatherlink.com 1.10,2013-10-14 20:49:00,
2013-10-14 15:04:00,49.2,30.0,30.65,NW,325,8.0,14.0,47,0.00,,,0.00,615,weatherlink.com 1.10,2013-10-14 21:04:00,
2013-10-14 15:19:00,49.9,29.0,30.64,NNW,332,11.0,14.0,45,0.00,,,0.00,631,weatherlink.com 1.10,2013-10-14 21:19:00,
2013-10-14 15:34:00,48.7,31.0,30.65,North,11,17.0,20.0,50,0.00,,,0.00,236,weatherlink.com 1.10,2013-10-14 21:34:00,
2013-10-14 15:49:00,48.2,30.0,30.65,NNE,18,13.0,17.0,49,0.00,,,0.00,163,weatherlink.com 1.10,2013-10-14 21:49:00,
2013-10-14 16:04:00,48.6,28.0,30.65,NE,49,12.0,14.0,46,0.00,,,0.00,169,weatherlink.com 1.10,2013-10-14 22:04:00,
2013-10-14 16:19:00,48.5,28.0,30.65,NNE,28,13.0,17.0,46,0.00,,,0.00,174,weatherlink.com 1.10,2013-10-14 22:19:00,
2013-10-14 16:34:00,48.7,29.0,30.65,North,360,13.0,17.0,47,0.00,,,0.00,185,weatherlink.com 1.10,2013-10-14 22:34:00,
2013-10-14 16:49:00,48.9,29.0,30.65,North,349,10.0,15.0,46,0.00,,,0.00,167,weatherlink.com 1.10,2013-10-14 22:49:00,
2013-10-14 17:04:00,48.7,28.0,30.65,North,350,11.0,14.0,45,0.00,,,0.00,109,weatherlink.com 1.10,2013-10-14 23:04:00,
2013-10-14 17:19:00,48.3,28.0,30.65,NNW,341,10.0,15.0,46,0.00,,,0.00,65,weatherlink.com 1.10,2013-10-14 23:19:00,
2013-10-14 17:34:00,48.0,29.0,30.66,NNW,346,9.0,11.0,48,0.00,,,0.00,63,weatherlink.com 1.10,2013-10-14 23:34:00,
2013-10-14 17:49:00,47.9,29.0,30.66,North,355,8.0,10.0,48,0.00,,,0.00,65,weatherlink.com 1.10,2013-10-14 23:49:00,
2013-10-14 18:04:00,47.6,29.0,30.66,North,360,6.0,9.0,49,0.00,,,0.00,44,weatherlink.com 1.10,2013-10-15 00:04:00,
2013-10-14 18:19:00,47.2,29.0,30.66,North,355,5.0,7.0,50,0.00,,,0.00,26,weatherlink.com 1.10,2013-10-15 00:19:00,
2013-10-14 18:34:00,46.5,30.0,30.66,North,5,5.0,6.0,53,0.00,,,0.00,14,weatherlink.com 1.10,2013-10-15 00:34:00,
2013-10-14 18:49:00,46.1,29.0,30.66,NNE,19,10.0,11.0,52,0.00,,,0.00,5,weatherlink.com 1.10,2013-10-15 00:49:00,
2013-10-14 19:04:00,45.7,30.0,30.67,NNE,33,11.0,12.0,54,0.00,,,0.00,0,weatherlink.com 1.10,2013-10-15 01:04:00,
2013-10-14 19:19:00,45.7,30.0,30.68,NE,42,10.0,12.0,54,0.00,,,0.00,0,weatherlink.com 1.10,2013-10-15 01:19:00,
2013-10-14 19:34:00,45.9,29.0,30.68,NE,49,11.0,13.0,53,0.00,,,0.00,0,weatherlink.com 1.10,2013-10-15 01:34:00,
2013-10-14 19:49:00,45.9,29.0,30.69,East,81,10.0,11.0,53,0.00,,,0.00,0,weatherlink.com 1.10,2013-10-15 01:49:00,
2013-10-14 20:04:00,44.5,30.0,30.69,ENE,76,7.0,10.0,57,0.00,,,0.00,0,weatherlink.com 1.10,2013-10-15 02:04:00,
2013-10-14 20:19:00,43.6,30.0,30.70,NW,322,0.0,6.0,59,0.00,,,0.00,0,weatherlink.com 1.10,2013-10-15 02:19:00,
2013-10-14 20:34:00,44.2,30.0,30.70,NNW,348,2.0,4.0,58,0.00,,,0.00,0,weatherlink.com 1.10,2013-10-15 02:34:00,
2013-10-14 20:49:00,44.3,30.0,30.70,NNE,15,3.0,3.0,58,0.00,,,0.00,0,weatherlink.com 1.10,2013-10-15 02:49:00,
2013-10-14 21:04:00,44.3,30.0,30.71,North,355,5.0,5.0,58,0.00,,,0.00,0,weatherlink.com 1.10,2013-10-15 03:04:00,
2013-10-14 21:19:00,43.2,30.0,30.71,NNE,18,6.0,8.0,60,0.00,,,0.00,0,weatherlink.com 1.10,2013-10-15 03:19:00,
2013-10-14 21:34:00,42.3,30.0,30.71,NE,34,3.0,7.0,62,0.00,,,0.00,0,weatherlink.com 1.10,2013-10-15 03:34:00,
2013-10-14 21:49:00,42.1,30.0,30.71,North,355,6.0,6.0,63,0.00,,,0.00,0,weatherlink.com 1.10,2013-10-15 03:49:00,
2013-10-14 22:05:00,41.6,31.0,30.72,NNE,24,4.0,7.0,65,0.00,,,0.00,0,weatherlink.com 1.10,2013-10-15 04:05:00,
2013-10-14 22:20:00,41.6,31.0,30.72,NNE,21,7.0,7.0,65,0.00,,,0.00,0,weatherlink.com 1.10,2013-10-15 04:20:00,
2013-10-14 22:35:00,41.6,31.0,30.72,NNE,30,5.0,7.0,66,0.00,,,0.00,0,weatherlink.com 1.10,2013-10-15 04:35:00,
2013-10-14 22:50:00,41.3,31.0,30.72,NNE,17,5.0,8.0,66,0.00,,,0.00,0,weatherlink.com 1.10,2013-10-15 04:50:00,
2013-10-14 23:05:00,40.6,30.0,30.73,NNE,14,6.0,8.0,67,0.00,,,0.00,0,weatherlink.com 1.10,2013-10-15 05:05:00,
2013-10-14 23:20:00,39.8,30.0,30.73,NNE,24,6.0,9.0,69,0.00,,,0.00,0,weatherlink.com 1.10,2013-10-15 05:20:00,
2013-10-14 23:35:00,39.7,30.0,30.73,NNE,31,6.0,9.0,69,0.00,,,0.00,0,weatherlink.com 1.10,2013-10-15 05:35:00,
2013-10-14 23:50:00,39.2,30.0,30.73,NNE,31,8.0,11.0,69,0.00,,,0.00,0,weatherlink.com 1.10,2013-10-15 05:50:00,